TimeEAT,TemperatureF,Dew PointF,Humidity,Sea Level PressureIn,VisibilityMPH,Wind Direction,Wind SpeedMPH,Gust SpeedMPH,PrecipitationIn,Events,Conditions,WindDirDegrees,DateUTC
12:00 AM,74,65,66,,19,SSW,9.2,,,,Partly Cloudy,200,2012-12-10 21:00:00
3:00 AM,72,65,71,,19,SSW,8.1,,,,Scattered Clouds,210,2012-12-11 00:00:00
6:00 AM,72,64,71,,19,West,4.6,,,,Mostly Cloudy,280,2012-12-11 03:00:00
6:00 AM,71.6,64.4,78,29.92,6.2,West,4.6,-,N/A,,Scattered Clouds,280,2012-12-11 03:00:00
8:00 AM,75.2,64.4,69,29.98,6.2,Calm,Calm,-,N/A,,Scattered Clouds,0,2012-12-11 05:00:00
9:00 AM,77,64,56,,19,WSW,3.5,,,,Partly Cloudy,240,2012-12-11 06:00:00
9:00 AM,77.0,64.4,65,30.01,6.2,WSW,3.5,-,N/A,,Scattered Clouds,240,2012-12-11 06:00:00
1:00 PM,89.6,64.4,43,29.89,6.2,NNE,4.6,-,N/A,,Mostly Cloudy,30,2012-12-11 10:00:00
2:00 PM,91.4,62.6,38,29.86,6.2,ENE,5.8,-,N/A,,Mostly Cloudy,60,2012-12-11 11:00:00
3:00 PM,93,62,26,,19,East,6.9,,,,Mostly Cloudy,100,2012-12-11 12:00:00
3:00 PM,93.2,62.6,36,29.83,6.2,East,6.9,-,N/A,,Mostly Cloudy,100,2012-12-11 12:00:00
4:00 PM,89.6,62.6,40,29.80,6.2,Calm,Calm,-,N/A,,Mostly Cloudy,0,2012-12-11 13:00:00
5:00 PM,89.6,60.8,38,29.80,6.2,ESE,6.9,-,N/A,,Mostly Cloudy,120,2012-12-11 14:00:00
6:00 PM,80,63,46,,19,SW,11.5,,,,Mostly Cloudy,230,2012-12-11 15:00:00
6:00 PM,80.6,62.6,54,29.83,6.2,SW,11.5,-,N/A,,Mostly Cloudy,230,2012-12-11 15:00:00
7:00 PM,80.6,53.6,39,29.89,6.2,SW,13.8,-,N/A,,Scattered Clouds,230,2012-12-11 16:00:00
8:00 PM,80.6,57.2,45,29.95,6.2,ESE,19.6,-,N/A,Thunderstorm,Thunderstorm,120,2012-12-11 17:00:00
9:00 PM,80,61,43,,19,South,16.1,,,,Partly Cloudy,180,2012-12-11 18:00:00
9:00 PM,80.6,60.8,51,29.95,6.2,South,16.1,-,N/A,,Scattered Clouds,180,2012-12-11 18:00:00
10:00 PM,78.8,60.8,54,29.98,6.2,ENE,4.6,-,N/A,,Scattered Clouds,70,2012-12-11 19:00:00
11:00 PM,78.8,60.8,54,29.98,6.2,Calm,Calm,-,N/A,,Mostly Cloudy,0,2012-12-11 20:00:00